FW4072 Weather Reports


Display with metric or nautical units.
time (UTC)temp
F
wind
direction
speed
MPH
gust
MPH
rain 1hr
in
rain 24hr
in
rain mn
in
humidity
%
barometer
mb
20260902210519 69 0.0 0.0 0.00 0.00 0.00 60 1020.7
20260902205558 69 0.0 0.0 0.00 0.00 0.00 60 1020.5
20260902204657 69 0.0 0.0 0.00 0.00 0.00 59 1020.5
20260902203726 69 0.0 0.0 0.00 0.00 0.00 58 1020.5
20260902202826 70 0.0 0.0 0.00 0.00 0.00 58 1020.4
20260902201045 70 0.0 1.0 0.00 0.00 0.00 59 1020.3
20260902200124 70 0.0 0.0 0.00 0.00 0.00 58 1020.3
20260902195223 70 0.0 0.0 0.00 0.00 0.00 58 1020.2
20260902194324 70 0.0 0.0 0.00 0.00 0.00 58 1020.4
20260902193442 70 0.0 0.0 0.00 0.00 0.00 59 1020.3
20260902192541 70 0.0 0.0 0.00 0.00 0.00 59 1020.3
20260902191621 70 0.0 0.0 0.00 0.00 0.00 59 1020.3
20260902190800 70 0.0 0.0 0.00 0.00 0.00 58 1020.3
20260902185819 71 0.0 0.0 0.00 0.00 0.00 55 1020.3
20260902184018 71 0.0 0.0 0.00 0.00 0.00 54 1020.2
20260902183117 71 0.0 0.0 0.00 0.00 0.00 52 1020.2
20260902182216 72 0.0 0.0 0.00 0.00 0.00 50 1020.2
20260902181317 73 0.0 0.0 0.00 0.00 0.00 49 1020.0
20260902180434 73 0.0 0.0 0.00 0.00 0.00 47 1020.1
20260902175514 74 0.0 0.0 0.00 0.00 0.00 45 1019.9
20260902174613 74 0.0 0.0 0.00 0.00 0.00 44 1019.8
20260902173712 75 0.0 1.0 0.00 0.00 0.00 41 1019.7
20260902172811 76 0.0 1.0 0.00 0.00 0.00 39 1019.6
20260902171951 77 0.0 0.0 0.00 0.00 0.00 37 1019.4
20260902170110 77 0.0 0.0 0.00 0.00 0.00 36 1019.3
20260902165211 78 0.0 0.0 0.00 0.00 0.00 36 1019.2
20260902164308 78 0.0 0.0 0.00 0.00 0.00 35 1019.3
20260902163409 79 0.0 0.0 0.00 0.00 0.00 33 1019.2
20260902162507 80 0.0 0.0 0.00 0.00 0.00 32 1019.3
20260902161607 81 0.0 1.0 0.00 0.00 0.00 31 1019.4
20260902160706 81 0.0 0.0 0.00 0.00 0.00 30 1019.3
20260902155806 82 0.0 1.0 0.00 0.00 0.00 28 1019.4
20260902154906 83 0.0 2.0 0.00 0.00 0.00 26 1019.5
20260902153103 83 0.0 1.0 0.00 0.00 0.00 25 1019.5
20260902152203 84 0.0 2.0 0.00 0.00 0.00 26 1019.6
20260902151302 84 0.0 0.0 0.00 0.00 0.00 25 1019.6
20260902150401 84 0.0 1.0 0.00 0.00 0.00 25 1019.6
20260902145502 84 0.0 1.0 0.00 0.00 0.00 23 1019.6
20260902144600 84 0.0 0.0 0.00 0.00 0.00 24 1019.6
20260902143741 84 0.0 0.0 0.00 0.00 0.00 22 1019.7
20260902142820 84 0.0 0.0 0.00 0.00 0.00 21 1019.8
20260902141858 85 0.0 2.0 0.00 0.00 0.00 19 1019.9
20260902140057 85 0.0 2.0 0.00 0.00 0.00 18 1019.9
20260902135156 87 135 1.0 3.0 0.00 0.00 0.00 16 1019.9
20260902134316 87 0.0 2.0 0.00 0.00 0.00 16 1020.1
20260902133355 87 113 1.0 2.0 0.00 0.00 0.00 15 1020.1
20260902132454 87 0.0 2.0 0.00 0.00 0.00 13 1020.2
20260902131554 87 0.0 3.0 0.00 0.00 0.00 14 1020.3
20260902130734 87 135 2.0 3.0 0.00 0.00 0.00 13 1020.3
20260902125752 89 0.0 2.0 0.00 0.00 0.00 12 1020.3
20260902124852 89 0.0 3.0 0.00 0.00 0.00 11 1020.3
20260902123050 90 113 1.0 3.0 0.00 0.00 0.00 11 1020.5
20260902122151 90 0.0 2.0 0.00 0.00 0.00 15 1020.6
20260902121249 90 135 1.0 3.0 0.00 0.00 0.00 15 1020.6
20260902120348 90 135 1.0 4.0 0.00 0.00 0.00 17 1020.8
20260902115447 90 135 1.0 3.0 0.00 0.00 0.00 20 1020.7
20260902114548 91 113 1.0 2.0 0.00 0.00 0.00 18 1020.9
20260902113646 90 135 1.0 3.0 0.00 0.00 0.00 21 1020.9
20260902112745 89 0.0 2.0 0.00 0.00 0.00 22 1021.0
20260902111844 88 135 1.0 4.0 0.00 0.00 0.00 24 1021.1
20260902110044 88 0.0 2.0 0.00 0.00 0.00 23 1021.2
20260902105143 88 0.0 2.0 0.00 0.00 0.00 26 1021.2
20260902104244 87 0.0 2.0 0.00 0.00 0.00 28 1021.3
20260902103343 87 135 1.0 2.0 0.00 0.00 0.00 26 1021.5
20260902102501 87 0.0 1.0 0.00 0.00 0.00 28 1021.4
20260902101540 87 135 1.0 2.0 0.00 0.00 0.00 27 1021.5
20260902100639 86 1.0 3.0 0.00 0.00 0.00 28 1021.6
20260902095739 86 135 1.0 2.0 0.00 0.00 0.00 28 1021.6
20260902094838 85 135 0.0 3.0 0.00 0.00 0.00 31 1021.7
20260902093037 85 0.0 2.0 0.00 0.00 0.00 33 1021.8
20260902092157 86 158 1.0 2.0 0.00 0.00 0.00 35 1021.9
20260902091235 85 0.0 2.0 0.00 0.00 0.00 37 1021.9
20260902090335 84 2.0 4.0 0.00 0.00 0.00 37 1021.9
20260902085516 82 0.0 2.0 0.00 0.00 0.00 42 1022.0
20260902084534 81 135 1.0 3.0 0.00 0.00 0.00 42 1022.0
20260902083633 81 1.0 3.0 0.00 0.00 0.00 43 1022.1
20260902082732 80 158 1.0 2.0 0.00 0.00 0.00 44 1022.0
20260902081833 80 0.0 2.0 0.00 0.00 0.00 44 1022.1
20260902080050 81 0.0 2.0 0.00 0.00 0.00 45 1022.0
20260902075130 80 2.0 4.0 0.00 0.00 0.00 48 1022.0
20260902074249 78 0.0 2.0 0.00 0.00 0.00 51 1022.0
20260902073329 78 135 1.0 3.0 0.00 0.00 0.00 51 1022.0
20260902072428 78 0.0 2.0 0.00 0.00 0.00 52 1022.0
20260902071527 77 0.0 2.0 0.00 0.00 0.00 52 1021.9
20260902070627 77 135 2.0 2.0 0.00 0.00 0.00 53 1021.9
20260902065726 78 135 2.0 4.0 0.00 0.00 0.00 54 1021.8
20260902064825 76 113 0.0 2.0 0.00 0.00 0.00 57 1021.8
20260902063025 74 0.0 2.0 0.00 0.00 0.00 61 1021.6
20260902062123 73 0.0 2.0 0.00 0.00 0.00 62 1021.5
20260902061223 73 0.0 0.0 0.00 0.00 0.00 64 1021.4
20260902060342 72 0.0 1.0 0.00 0.00 0.00 66 1021.5
20260902055421 70 0.0 1.0 0.00 0.00 0.00 70 1021.5
20260902054521 69 0.0 1.0 0.00 0.00 0.00 72 1021.6
20260902053620 69 0.0 2.0 0.00 0.00 0.00 75 1021.6
20260902052719 67 0.0 1.0 0.00 0.00 0.00 79 1021.7
20260902051820 65 0.0 1.0 0.00 0.00 0.00 82 1021.6
20260902050017 64 0.0 1.0 0.00 0.00 0.00 84 1021.5
20260902045117 63 0.0 0.0 0.00 0.00 0.00 85 1021.6
20260902044216 63 0.0 0.0 0.00 0.00 0.00 86 1021.6
20260902043316 62 0.0 0.0 0.00 0.00 0.00 86 1021.7
20260902042415 62 0.0 0.0 0.00 0.00 0.00 86 1021.6
20260902041535 62 0.0 1.0 0.00 0.00 0.00 86 1021.6
20260902040614 61 0.0 0.0 0.00 0.00 0.00 86 1021.4
20260902035713 61 0.0 1.0 0.00 0.00 0.00 86 1021.3
20260902034814 61 0.0 0.0 0.00 0.00 0.00 85 1021.3
20260902033912 61 0.0 0.0 0.00 0.00 0.00 85 1021.1
20260902032112 62 0.0 0.0 0.00 0.00 0.00 85 1021.1
20260902031252 62 0.0 0.0 0.00 0.00 0.00 85 1021.1
20260902030311 62 0.0 0.0 0.00 0.00 0.00 84 1021.2
20260902025408 62 0.0 0.0 0.00 0.00 0.00 84 1021.1
20260902024508 62 0.0 0.0 0.00 0.00 0.00 84 1021.1
20260902023607 62 0.0 0.0 0.00 0.00 0.00 84 1021.1
20260902022707 62 0.0 0.0 0.00 0.00 0.00 84 1020.9
20260902021806 62 0.0 0.0 0.00 0.00 0.00 84 1020.9
20260902020905 63 0.0 0.0 0.00 0.00 0.00 84 1020.8
20260902015104 63 0.0 0.0 0.00 0.00 0.00 84 1020.8
20260902014204 63 0.0 0.0 0.00 0.00 0.00 84 1020.7
20260902013303 63 0.0 0.0 0.00 0.00 0.00 84 1020.7
20260902012424 63 0.0 0.0 0.00 0.00 0.00 83 1020.8
20260902011502 63 0.0 0.0 0.00 0.00 0.00 83 1020.9
20260902010601 63 0.0 0.0 0.00 0.00 0.00 83 1020.9
20260902005701 63 0.0 0.0 0.00 0.00 0.00 82 1020.7
20260902004759 63 0.0 0.0 0.00 0.00 0.00 82 1020.6
20260902003859 64 0.0 0.0 0.00 0.00 0.00 81 1020.7
20260902002118 64 0.0 0.0 0.00 0.00 0.00 81 1020.7
20260902001157 64 0.0 2.0 0.00 0.00 0.00 81 1020.7
20260902000322 65 0.0 0.0 0.00 0.00 0.00 80 1020.7
20260901235356 65 0.0 0.0 0.00 0.00 0.00 80 1020.6
20260901234456 65 0.0 0.0 0.00 0.00 0.00 80 1020.6
20260901233555 65 0.0 0.0 0.00 0.00 0.00 79 1020.6
20260901232654 65 0.0 0.0 0.00 0.00 0.00 79 1020.6
20260901231753 66 0.0 1.0 0.00 0.00 0.00 79 1020.6
20260901230853 66 0.0 2.0 0.00 0.00 0.00 78 1020.5
20260901225112 66 0.0 0.0 0.00 0.00 0.00 78 1020.4
20260901224151 67 0.0 0.0 0.00 0.00 0.00 78 1020.4
20260901223311 67 0.0 1.0 0.00 0.00 0.00 78 1020.4
20260901222352 67 0.0 1.0 0.00 0.00 0.00 78 1020.4
20260901221450 67 0.0 2.0 0.00 0.00 0.00 78 1020.4
20260901220630 67 0.0 1.0 0.00 0.00 0.00 78 1020.4
20260901215648 67 0.0 1.0 0.00 0.00 0.00 78 1020.3
20260901214747 67 0.0 1.0 0.00 0.00 0.00 78 1020.4
20260901213846 67 0.0 1.0 0.00 0.00 0.00 78 1020.3
20260901212045 67 0.0 1.0 0.00 0.00 0.00 78 1020.3
20260901211146 68 0.0 1.0 0.00 0.00 0.00 77 1020.2